Погода в Тайпалсаари

Финляндия     61°09′29″N   28°04′01″E
темп.,
°C
ветер,
м/с
пор.,
м/с
влажн.,
%
обл.,
%
осадки,
мм/ч
давл.,
гПа
погр.,
м
8 декабря, ср
ср823:00−13зсз359641 0.0 1017125
02:00−14зсз369634 0.0 1018146
05:00−14зсз369531 0.0 1019157
08:00−14зсз36955 0.0 1021149
11:00−14зсз36935 0.0 1022162
14:00−13з259362 0.0 1023140
17:00−14зсз259593 0.0 1024134
20:00−15зсз249636 0.0 102479
9 декабря, чт
чт923:00−15зсз239635 0.0 102672
02:00−15зсз129637 0.0 102740
05:00−15зсз229636 0.0 102735
08:00−15з119531 0.0 102811
11:00−13юз119056 0.0 102934
14:00−12ю2390100 0.0 102954
17:00−12юв239196 0.0 102951
20:00−12юв369263 0.0 102999
10 декабря, пт
пт1023:00−12юв499484 0.0 1029142
02:00−11юв4994100 0.0 1029161
05:00−12юв4119126 0.0 1028188
08:00−11юв51284100 0.0 1027249
11:00−10юв51479100 0.0 1027317
14:00−9юв61379100 0.0 1026341
17:00−9юв6148268 0.0 1026329
20:00−10юв614835 0.0 1025336
11 декабря, сб
сб1123:00−10юв513845 0.0 1025322
02:00−9юв5138521 0.0 1025305
05:00−8вюв51185100 0.0 1024326
08:00−7вюв51285100 0.1 1024355
11:00−8вюв5128767 0.0 1024329
14:00−6вюв51289100 0.1 1023351
17:00−5вюв61293100 0.4 1023370
20:00−4юв51295100 1.2 1022349
12 декабря, вс
вс1223:00−3вюв51194100 0.8 1022334
02:00−4юв51193100 0.9 1021366
05:00−4юв51096100 0.7 1020369
08:00−3юв5129586 1.4 1020362
11:00−1юв51298100 0.3 1019531
14:00+1ю51397100 1.0 1020674
17:00+1ююз71492100 0.4 1021635
20:00+1ююз61291100 0.4 1021587